Starlink 32230

operational
NORAD ID: 60366 Int'l Des: 2024-138 Owner: SPXS Country: US Constellation: starlink
LEOCIRCULAR

About Starlink 32230

Description loading...

Live Position

Loading 3D Globe...

Upcoming Passes

Altitude History

Altitude vs Time

uPlot chart will show altitude changes over time

Two-Line Element Set

1 60366U 24138M 25308.60265839 -.00002206 00000-0 -62353-4 0 9991
2 60366 53.1568 170.8038 0002498 102.9393 257.1886 15.30193564 71471
Epoch: Nov 4, 2025 • Age: 9 hours

Current Status

Altitude 480.2 km
Velocity 7.63 km/s
Sub-Earth Point -17.52°S, 29.43°W
Launch Date Aug 4, 2024
Age 1.2 years
Type internet

Technical Details

Classification Payload
Mass 730.00 kg
Dry Mass 700.00 kg
Total Mass 730.00 kg
Length 0.30 m
Diameter 4.10 m
Span 29.00 m
Shape Box + pan
Manufacturer SPXS
Bus Type Starlink V2M
Phase Status In Orbit
Owner/State SPXS/US

Large Constellations

Loading constellations...